Back to catalog

NOAA 16 DEB

AlivePO
NORAD 42409·DEBRIS·🇺🇸 United States

Launched Sep 21, 2000 from Vandenberg Space Force Base

Loading…

Next Passes (next 24 hours)

TLE

FreshSource: Space-Track

Epoch: Sep 14, 2026, 10:46 UTC

1 42409U 00055TD  26257.44918421  .00015072  00000-0  18293-2 0  9994
2 42409  98.7819  73.5614 0018977  20.8476 339.3505 14.83538220548560

Track NOAA 16 DEB in real time with AllMySat

Download on the App Store